Home > Weather > Tórshavn > Past weeks

Flag for Faroe Islands Past Weather in Tórshavn, Faroe Islands — Yesterday and Last 2 Weeks

Now
45 °F

Partly sunny.


Feels Like: 40 °F
Forecast: 41 / 54 °F
Wind: 9 mph from Southeast

Location: Soervaag / Vagar

Current Time: May 27, 2016 at 11:14:35 PM

Latest Report: May 27, 2016 at 10:20 PM


Visibility: N/A

Pressure: 30.24 "Hg

Humidity: 81%

Dew Point: 39 °F

Location of TórshavnLocation

Past Weather in Tórshavn — Graph

°F

Tórshavn Temperature Yesterday

Maximum temperature yesterday: 46 °F (at 12:20 PM)
Minimum temperature yesterday: 43 °F (at 12:20 AM)
Average temperature yesterday: 44 °F

High & Low Weather Summary for the Past Weeks

 TemperatureHumidityPressure
High54 °F (May 21, 4:50 PM)100% (May 15, 2:20 AM)30.48 "Hg (May 15, 2:20 AM)
Low32 °F (May 19, 1:20 AM)42% (May 18, 12:28 PM)29.45 "Hg (May 20, 9:20 AM)
Average43 °F77%30.00 "Hg
* Reported May 12 9:20 PM — May 27 9:50 PM, Tórshavn, Weather by CustomWeather, © 2016

Note: Actual official high and low records may vary slightly from our data, if they occured in-between our weather recording intervals... More about our weather records

Advertising

Tórshavn Weather History for the Previous 24 Hours

Scroll right to see more
 ConditionsComfort  
Time TempWeatherWind HumidityBarometerVisibility
9:50 PM
Fri, May 27
45 °FOvercast.9 mph81%30.21 "HgN/A
9:20 PM45 °FOvercast.12 mph81%30.21 "HgN/A
8:50 PM45 °FOvercast.10 mph81%30.21 "HgN/A
8:20 PM45 °FPartly sunny.9 mph81%30.21 "HgN/A
7:50 PM45 °FPartly sunny.10 mph81%30.21 "HgN/A
7:20 PM46 °FScattered clouds.12 mph76%30.21 "HgN/A
6:50 PM46 °FCool.12 mph76%30.21 "HgN/A
6:20 PM48 °FCool.12 mph71%30.21 "HgN/A
5:50 PM48 °FCool.12 mph71%30.21 "HgN/A
5:20 PM48 °FCool.12 mph71%30.21 "HgN/A
4:50 PM48 °FCool.10 mph71%30.21 "HgN/A
4:20 PM48 °FCool.7 mph71%30.21 "HgN/A
3:50 PM48 °FCool.10 mph71%30.21 "HgN/A
3:20 PM48 °FCool.10 mph66%30.21 "HgN/A
2:50 PM48 °FPassing clouds.10 mph66%30.21 "HgN/A
2:20 PM46 °FScattered clouds.12 mph71%30.21 "HgN/A
1:50 PM46 °FPartly sunny.9 mph71%30.24 "HgN/A
1:20 PM46 °FPartly sunny.9 mph71%30.24 "HgN/A
12:50 PM45 °FPartly sunny.9 mph76%30.24 "HgN/A
12:20 PM45 °FOvercast.8 mph76%30.24 "HgN/A
11:50 AM43 °FOvercast.7 mph76%30.24 "HgN/A
11:20 AM45 °FPartly sunny.2 mph76%30.24 "HgN/A
10:50 AM43 °FOvercast.5 mph76%30.21 "HgN/A
10:20 AM43 °FOvercast.5 mph76%30.21 "HgN/A
9:50 AM43 °FOvercast.6 mph76%30.21 "HgN/A
9:20 AM43 °FOvercast.5 mph76%30.21 "HgN/A
8:50 AM43 °FOvercast.6 mph76%30.21 "HgN/A
8:20 AM43 °FOvercast.7 mph76%30.21 "HgN/A
7:50 AM43 °FOvercast.5 mph76%30.21 "HgN/A
7:20 AM43 °FOvercast.5 mph76%30.21 "HgN/A
6:50 AM43 °FOvercast.6 mph76%30.21 "HgN/A
6:20 AM43 °FOvercast.3 mph76%30.21 "HgN/A
5:50 AM41 °FOvercast.3 mph81%30.21 "HgN/A
5:20 AM43 °FOvercast.3 mph76%30.21 "HgN/A
4:50 AM43 °FOvercast.1 mph76%30.21 "HgN/A
4:20 AM41 °FOvercast.2 mph81%30.21 "HgN/A
3:50 AM41 °FOvercast.2 mph81%30.21 "HgN/A
3:20 AM43 °FOvercast.2 mph76%30.21 "HgN/A
2:50 AM43 °FOvercast.3 mph76%30.21 "HgN/A
2:20 AM43 °FOvercast.5 mph76%30.21 "HgN/A
1:50 AM43 °FOvercast.5 mph81%30.21 "HgN/A
1:20 AM43 °FOvercast.3 mph81%30.21 "HgN/A
12:50 AM43 °FOvercast.5 mph81%30.21 "HgN/A
12:20 AM43 °FOvercast.7 mph81%30.21 "HgN/A
11:50 PM
Thu, May 26
43 °FOvercast.7 mph81%30.21 "HgN/A
11:20 PM43 °FOvercast.5 mph81%30.21 "HgN/A
Weather by CustomWeather, © 2016

See weather overviewHow to use our weather pages